WSSS Airport Information

Runway Information
Runway 02C Length 13123 ft width 197 ft
Elevation 15 ft Threshold 0 ft Heading 23
Runway 20C Length 13123 ft Width 197 ft
Elevation 15 ft Threshold 0 ft Heading 203
Runway 02L Length 13123 ft width 197 ft
Elevation 22 ft Threshold 0 ft Heading 23
Runway 20R Length 13123 ft Width 197 ft
Elevation 14 ft Threshold 2429 ft Heading 203
Runway 02R Length 9015 ft width 195 ft
Elevation 0 ft Threshold 0 ft Heading 23
Runway 20L Length 9015 ft Width 195 ft
Elevation 0 ft Threshold 0 ft Heading 203
Airport Frequencies
Type A/D Name APP/DEP Frequency 120.3 MHZ
Type ARR Name ARR Frequency 119.3 MHZ
Type ATIS Name ATIS Frequency 128.6 MHZ
Type CLD Name CLNC DEL Frequency 121.65 MHZ
Type GND Name GND Frequency 124.3 MHZ
Type TWR Name TWR Frequency 118.6 MHZ
Airport Navaids
Type NDB Name Bedok Frequency 232 KHZ
Type VOR-DME Name Tekong Frequency 116500 KHZ
Airport Weather Information & NOTAM
ADDS - METARS form results

(1532 UTC 21 April 2018)
 
METAR text: WSSS 211500Z VRB02KT 9999 FEW020 BKN300 27/25 Q1011 NOSIG
Conditions at: WSSS (SINGAPORE/CHANGI, SG) observed 1500 UTC 21 April 2018
Temperature: 27.0°C (81°F)
Dewpoint: 25.0°C (77°F) [RH = 89%]
Pressure (altimeter): 29.85 inches Hg (1011.0 mb)
Winds: variable direction winds at 2 MPH (2 knots; 1.0 m/s)
Visibility: 6 or more miles (10+ km)
Ceiling: 30000 feet AGL
Clouds: few clouds at 2000 feet AGL
broken clouds at 30000 feet AGL
Weather: no significant weather observed at this time